Terminal Aerodrome Forecast
Issued by NWS Tampa Bay Area, FL

Home | Current Version | Previous Version | Text Only | Print | Product List | Glossary On
Versions: 1 2 3 4 5 6 7 8 9 10 11 12 13 14 15 16 17 18 19 20 21 22 23 24 25 26 27 28
396
FTUS42 KTBW 271126
TAFTPA
TAF
KTPA 271126Z 2712/2812 21007KT P6SM FEW020 SCT150
     FM271300 26007KT P6SM SCT020 SCT200
     FM271600 28008KT P6SM VCTS SCT030CB BKN120
     FM272000 32007KT P6SM SCT050 BKN150
     FM280100 VRB04KT P6SM FEW050 BKN200=

USA.gov is the U.S. government's official web portal to all federal, state and local government web resources and services.